Location: Unnamed
(25.2826°S, 57.6099°W)
Time: 23:33:54
(UTC-04:00)

Hubble Space Telescope - Pass Details

Date: 26 January 2026
Orbit: 478 x 479 km, 28.5° (Epoch: 18 February)

Event Time Altitude Azimuth Distance (km) Brightness Sun altitude
Exits shadow 03:12:06 13° 60° (ENE) 1,496 3.2 -26.4°
Drops below altitude 10° 03:12:45 10° 68° (ENE) 1,650 3.6 -26.3°
Sets 03:15:34 0° 89° (E) 2,532 5.0 -25.8°
